Location: Ciserano
(45.5833°N, 9.6000°E)
Time: 23:31:39
(UTC+00:00)

FALCON 9 DEB - Pass Details

Date: 19 June 2021
Orbit: 364 x 377 km, 53.0° (Epoch: 26 July)

Event Time Altitude Azimuth Distance (km) Brightness Sun altitude
Rises 23:19:22 0° 285° (WNW) 2,265 7.0 -21.0°
Reaches altitude 10° 23:21:45 10° 302° (WNW) 1,413 6.1 -21.0°
Maximum altitude 23:24:15 21° 354° (N) 930 5.7 -21.0°
Drops below altitude 10° 23:26:45 10° 47° (NE) 1,413 6.3 -21.0°
Sets 23:29:08 0° 64° (ENE) 2,266 7.1 -21.0°
